EW0139 Weather Reports


time (UTC)temp
F
wind
direction
speed
knots
gust
knots
rain 1hr
in
rain 24hr
in
rain mn
in
humidity
%
barometer
mb
20260503195743 75 223 10.4 20.9 0.00 0.00 0.00 26 1005.3
20260503194744 74 236 13.0 18.2 0.00 0.00 0.00 28 1005.4
20260503193746 73 217 13.9 20.0 0.00 0.00 0.00 29 1005.9
20260503192753 73 240 13.0 27.8 0.00 0.00 0.00 29 1006.1
20260503191754 72 244 12.2 16.5 0.00 0.00 0.00 28 1006.3
20260503190754 72 241 4.3 16.5 0.00 0.00 0.00 30 1006.6
20260503185755 72 216 13.9 15.6 0.00 0.00 0.00 30 1006.7
20260503184741 72 264 13.9 18.2 0.00 0.00 0.00 31 1007.2
20260503183742 71 212 5.2 16.5 0.00 0.00 0.00 31 1007.5
20260503182806 70 271 12.2 17.4 0.00 0.00 0.00 30 1007.8
20260503181805 70 254 13.0 15.6 0.00 0.00 0.00 33 1008.1
20260503180744 70 285 11.3 20.0 0.00 0.00 0.00 33 1008.2
20260503175748 69 258 11.3 16.5 0.00 0.00 0.00 32 1008.6
20260503174749 69 206 13.0 16.5 0.00 0.00 0.00 31 1008.7
20260503173748 69 238 10.4 16.5 0.00 0.00 0.00 32 1008.8
20260503172749 69 264 12.2 16.5 0.00 0.00 0.00 36 1008.9
20260503171753 68 273 13.0 16.5 0.00 0.00 0.00 39 1009.0
20260503170754 68 251 8.7 14.8 0.00 0.00 0.00 39 1009.1
20260503150758 55 211 0.9 3.5 0.00 0.00 0.00 52 1011.3
20260503130749 38 317 0.0 5.2 0.00 0.00 0.00 79 1012.2
20260503110743 33 317 0.0 1.7 0.00 0.00 0.00 81 1012.7
20260503080746 39 302 0.9 1.7 0.00 0.00 0.00 75 1013.3
20260503072738 40 301 0.0 2.6 0.00 0.00 0.00 75 1013.5
20260503071746 40 301 2.6 3.5 0.00 0.00 0.00 75 1013.5
20260503070746 40 302 2.6 3.5 0.00 0.00 0.00 75 1013.6
20260503054752 42 301 1.7 2.6 0.00 0.00 0.00 71 1013.6
20260503053755 43 302 0.9 2.6 0.00 0.00 0.00 71 1013.6
20260503052755 43 302 1.7 3.5 0.00 0.00 0.00 72 1013.7
20260503051743 43 302 0.0 0.9 0.00 0.00 0.00 70 1013.7
20260503050807 44 301 0.9 1.7 0.00 0.00 0.00 69 1013.7
20260503045746 44 301 0.0 2.6 0.00 0.00 0.00 69 1013.7
20260503044809 46 302 0.9 0.9 0.00 0.00 0.00 65 1013.7
20260503043809 46 302 0.0 1.7 0.00 0.00 0.00 65 1013.8
20260503042808 46 302 0.9 2.6 0.00 0.00 0.00 66 1013.7
20260503041751 47 302 1.7 2.6 0.00 0.00 0.00 66 1013.6
20260503040750 47 302 1.7 1.7 0.00 0.00 0.00 63 1013.7
20260503035816 48 301 0.9 2.6 0.00 0.00 0.00 62 1013.6
20260503034755 49 302 1.7 1.7 0.00 0.00 0.00 62 1013.6
20260503033742 50 302 0.9 2.6 0.00 0.00 0.00 60 1013.6
20260503032744 51 302 0.9 0.9 0.00 0.00 0.00 58 1013.6
20260503031744 52 302 0.0 1.7 0.00 0.00 0.00 56 1013.7
20260503030745 52 301 0.0 0.9 0.00 0.00 0.00 55 1013.6
20260503025746 52 302 0.0 1.7 0.00 0.00 0.00 56 1013.6
20260503024750 54 302 1.7 1.7 0.00 0.00 0.00 51 1013.5
20260503023814 54 302 0.0 1.7 0.00 0.00 0.00 50 1013.3
20260503022757 55 302 1.7 1.7 0.00 0.00 0.00 50 1013.3
20260503021756 56 302 0.9 1.7 0.00 0.00 0.00 49 1013.2
20260503020744 58 302 1.7 1.7 0.00 0.00 0.00 48 1013.1
20260503015744 60 302 0.0 1.7 0.00 0.00 0.00 44 1013.1
20260503014745 61 302 0.9 0.9 0.00 0.00 0.00 39 1013.0
20260503013750 62 302 0.9 2.6 0.00 0.00 0.00 38 1013.0
20260503012751 62 301 1.7 3.5 0.00 0.00 0.00 37 1013.1
20260503011756 63 302 1.7 4.3 0.00 0.00 0.00 36 1013.1
20260503010820 64 300 4.3 8.7 0.00 0.00 0.00 34 1013.1
20260503005739 65 312 8.7 9.6 0.00 0.00 0.00 33 1013.2
20260503004744 65 304 7.8 12.2 0.00 0.00 0.00 33 1013.2
20260503003750 66 298 8.7 12.2 0.00 0.00 0.00 32 1013.3
20260503002749 66 292 8.7 15.6 0.00 0.00 0.00 32 1013.4
20260503001751 66 293 8.7 12.2 0.00 0.00 0.00 31 1013.5
20260503000750 66 284 4.3 10.4 0.00 0.00 0.00 31 1013.6
20260502235750 66 302 10.4 13.9 0.00 0.00 0.00 31 1013.5
20260502234753 66 281 7.8 14.8 0.00 0.00 0.00 31 1013.6
20260502233754 67 261 9.6 13.9 0.00 0.00 0.00 30 1013.7
20260502232759 66 292 12.2 14.8 0.00 0.00 0.00 31 1013.8
20260502231759 66 306 11.3 18.2 0.00 0.00 0.00 31 1013.9
20260502230744 66 321 8.7 11.3 0.00 0.00 0.00 32 1013.9
20260502225743 66 331 10.4 15.6 0.00 0.00 0.00 31 1013.7
20260502224744 67 275 8.7 15.6 0.00 0.00 0.00 33 1013.9
20260502223747 67 318 10.4 17.4 0.00 0.00 0.00 31 1013.9
20260502222808 66 300 11.3 24.3 0.00 0.00 0.00 31 1014.0
20260502221752 66 302 6.1 13.9 0.00 0.00 0.00 31 1014.0
20260502220752 67 301 12.2 15.6 0.00 0.00 0.00 31 1014.1
20260502215755 66 309 7.8 14.8 0.00 0.00 0.00 32 1014.3
20260502214756 67 273 14.8 15.6 0.00 0.00 0.00 32 1014.3
20260502213743 68 306 13.0 17.4 0.00 0.00 0.00 31 1014.3
20260502212748 67 286 8.7 20.0 0.00 0.00 0.00 31 1014.4
20260502211808 67 309 13.0 18.2 0.00 0.00 0.00 32 1014.5
20260502210747 68 329 9.6 18.2 0.00 0.00 0.00 32 1014.4
20260502205747 67 319 8.7 16.5 0.00 0.00 0.00 33 1014.8
20260502204752 66 292 12.2 16.5 0.00 0.00 0.00 33 1014.8
20260502203812 65 312 8.7 12.2 0.00 0.00 0.00 34 1014.9
20260502202751 66 309 9.6 20.0 0.00 0.00 0.00 34 1014.9
20260502201817 67 321 14.8 19.1 0.00 0.00 0.00 32 1014.9
20260502200755 67 284 18.2 25.2 0.00 0.00 0.00 33 1014.9